Weather in Lamenskiy

Russia / Tyumen Oblast     56°25′50″N   67°59′18″E
temp.,
°C
wind,
m/s
gust,
m/s
humid.,
%
clouds,
%
prec.,
mm/h
press.,
hPa
HPBL,
m
20 april, tue
tue2023:00−5nne26510 0.0 1034234
02:00−6nne22530 0.0 103469
05:00−6nw11545 0.0 103418
08:00−4wnw34405 0.0 1034769
11:00+1w45295 0.0 10321129
14:00+5w68305 0.0 10281600
17:00+6w610355 0.0 10261765
20:00+3w385749 0.0 1025125
21 april, wed
wed2123:00+2w513625 0.0 1025291
02:00+1nw410735 0.0 1025217
05:000nnw39895 0.0 1027173
08:00+3n477818 0.0 1029502
11:00+7n46535 0.0 10301247
14:00+9n56385 0.0 10311633
17:00+9nne45331 0.0 10321615
20:00+5ne22510 0.0 103537
22 april, thu
thu2223:00+2ese38630 0.0 1037179
02:00+1se38710 0.0 1038186
05:00−1sse37770 0.0 1040161
08:00+3sse57570 0.0 1041456
11:00+7sse55445 0.0 10411045
14:00+9sse56361 0.0 10401372
17:00+10s563410 0.0 10401461
20:00+6sse4104790 0.0 1040249
23 april, fri
fri2323:00+5sse51247100 0.0 1040379
02:00+4sse51251100 0.0 1039344
05:00+3sse4105999 0.0 1039259
08:00+6s51155100 0.0 1039391
11:00+11s683791 0.0 1038932
14:00+13s6731100 0.0 10371634
17:00+11s5736100 0.0 10371258
20:00+8sse494599 0.0 1036312
24 april, sat
sat2423:00+6sse3105394 0.0 1035206
02:00+5sse31058100 0.0 1034229
05:00+4sse31059100 0.0 1034208
08:00+7sse5948100 0.0 1033364
11:00+11s6834100 0.0 1031882
14:00+12s6729100 0.0 10301503
17:00+12s4632100 0.0 10291701
20:00+9s2345100 0.0 102855